Home   Weather   Jacksonville   Past weeks
Flag for USA

Past Weather in Jacksonville, Florida, USA — Yesterday and Last 2 Weeks

Now
92 °F

Hot.


Feels Like: 105 °F
Forecast: 89 / 75 °F
Wind: 3 mph from West

Location: Bellair-Meadowbrook Terrace - MADIS Station

Current Time: Jul 23, 2019 at 1:43:39 pm

Latest Report: Jul 23, 2019 at 1:03 pm


Visibility: N/A

Pressure: 29.88 "Hg

Humidity: 61%

Dew Point: 77 °F

Location of JacksonvilleLocation

Past Weather in Jacksonville — Graph

°F

Jacksonville Temperature Yesterday

Maximum temperature yesterday: 94 °F (at 1:33 pm)
Minimum temperature yesterday: 73 °F (at 3:33 am)
Average temperature yesterday: 82 °F

High & Low Weather Summary for the Past Weeks

 TemperatureHumidityPressure
High100 °F (Jul 16, 2:33 pm)98% (Jul 13, 6:03 am)30.13 "Hg (Jul 13, 6:03 am)
Low72 °F (Jul 20, 6:33 am)45% (Jul 15, 4:18 pm)29.87 "Hg (Jul 11, 5:18 pm)
Average83 °F80%30.03 "Hg
* Reported Jul 11 4:03 pm — Jul 23 12:18 pm, Jacksonville. Weather by CustomWeather, © 2019

Note: Actual official high and low records may vary slightly from our data, if they occured in-between our weather recording intervals... More about our weather records

Advertising

Jacksonville Weather History for the Previous 24 Hours

Scroll right to see more
 ConditionsComfort  
Time TempWeatherWind HumidityBarometerVisibility
12:18 pm
Tue, Jul 23
91 °FHot.2 mph64%29.90 "HgN/A
12:03 pm93 °FHot.2 mph60%29.90 "HgN/A
11:48 am91 °FHot.1 mph61%29.91 "HgN/A
11:18 am91 °FHot.1 mph63%29.91 "HgN/A
11:03 am90 °FHot.2 mph65%29.91 "HgN/A
10:48 am90 °FHot.2 mph66%29.92 "HgN/A
10:18 am88 °FWarm.2 mph71%29.92 "HgN/A
9:18 am83 °FWarm.2 mph80%29.92 "HgN/A
9:03 am82 °FWarm.1 mph84%29.92 "HgN/A
8:33 am78 °FMild.1 mph90%29.93 "HgN/A
8:18 am77 °FMild.1 mph92%29.93 "HgN/A
7:48 am76 °FMild.1 mph94%29.92 "HgN/A
7:18 am75 °FMild.1 mph95%29.92 "HgN/A
6:18 am75 °FMild.1 mph94%29.91 "HgN/A
6:03 am75 °FMild.1 mph93%29.91 "HgN/A
5:18 am75 °FMild.No wind93%29.91 "HgN/A
4:18 am76 °FMild.1 mph91%29.91 "HgN/A
4:03 am75 °FMild.No wind92%29.91 "HgN/A
3:33 am76 °FMild.No wind90%29.91 "HgN/A
3:03 am76 °FMild.No wind90%29.91 "HgN/A
2:33 am76 °FMild.No wind90%29.93 "HgN/A
2:18 am76 °FMild.1 mph89%29.93 "HgN/A
1:48 am77 °FMild.No wind88%29.94 "HgN/A
1:18 am77 °FMild.No wind86%29.94 "HgN/A
1:03 am78 °FMild.1 mph85%29.94 "HgN/A
12:18 am79 °FMild.2 mph84%29.95 "HgN/A
11:33 pm
Mon, Jul 22
81 °FWarm.2 mph84%29.96 "HgN/A
11:18 pm82 °FWarm.2 mph86%29.96 "HgN/A
10:18 pm82 °FWarm.1 mph82%29.97 "HgN/A
9:48 pm83 °FWarm.1 mph80%29.96 "HgN/A
9:33 pm83 °FWarm.1 mph79%29.96 "HgN/A
9:18 pm83 °FWarm.1 mph78%29.96 "HgN/A
9:03 pm84 °FWarm.1 mph77%29.96 "HgN/A
8:18 pm85 °FWarm.No wind77%29.95 "HgN/A
8:03 pm85 °FWarm.1 mph76%29.94 "HgN/A
7:48 pm86 °FWarm.3 mph74%29.93 "HgN/A
7:18 pm86 °FWarm.1 mph72%29.92 "HgN/A
7:03 pm87 °FWarm.1 mph72%29.93 "HgN/A
6:33 pm87 °FWarm.2 mph71%29.93 "HgN/A
5:33 pm87 °FWarm.1 mph72%29.94 "HgN/A
5:18 pm87 °FWarm.No wind71%29.95 "HgN/A
5:03 pm87 °FWarm.1 mph71%29.94 "HgN/A
4:33 pm86 °FWarm.2 mph72%29.95 "HgN/A
3:48 pm89 °FWarm.2 mph66%29.96 "HgN/A
3:18 pm92 °FHot.2 mph60%29.96 "HgN/A
3:03 pm92 °FHot.2 mph62%29.97 "HgN/A
2:18 pm94 °FHot.3 mph56%29.98 "HgN/A
2:03 pm94 °FHot.2 mph57%29.99 "HgN/A
1:33 pm94 °FHot.3 mph60%30.00 "HgN/A
1:18 pm92 °FHot.3 mph62%30.00 "HgN/A
Weather by CustomWeather, © 2019

See weather overview